sat.trackr.live / text

‹ back to catalog

STARLINK-31324

NORAD 58976 · 2024-031M

PAYLOAD ACTIVE UNKNOWN

§ Identity

Operator
Country
US
Launch date
2024-02-15
Launch site
AFWTR
Launch vehicle
Mass (kg)
RCS (m²)

Purposes: comms

External: N2YO · Heavens-Above · Gunter

§ Orbital elements

Epoch: 2026-05-24T15:50:13.795296Z

Period
94.11 min
Inclination
53.1620°
Eccentricity
0.0001050
Mean motion
15.30197523 rev/d
Perigee alt
474.5 km
Apogee alt
475.9 km
Semi-major
6,853.4 km
B*
1.3213e-6
RAAN
303.8810°
Arg perigee
71.6678°
Mean anomaly
288.4437°
Rev number
12,814

§ Raw data

STARLINK-313241 58976U 24031M   26144.65988189 -.00000320  00000+0  13213-5 0  99962 58976  53.1620 303.8810 0001050  71.6678 288.4437 15.30197523128146

JSON: /api/v1/satellites/58976 · /tle

For live sub-satellite position, see the globe view (requires WebGL).

§ Visibility from observer

Set your observer location to see the next 7 days of passes ≥ 10°. The values pass through the URL so the page stays shareable.

No JS? Fill the form by hand. The geolocation button needs JavaScript.